NUSAT 1 (LO-87) (41557 NORAD) Tracking and Keplerian Element Data

This shows tracking and keplerian element data for the satellite.

Feedback or suggestion? Click here.




ElementValue
Catalog41557
NameNUSAT 1 (LO-87)
Epoch Orbit13700
Epoch Day317.86929997
Epoch Year2018
RAAN41.5869
Inclination97.431
Eccentricity0.0012539
Argument of Perigee349.0882
Mean Anonmoly11.0083
Mean Motion15.27089841
Decay Rate1.218E-05
L11 41557U 16033B 18317.86929997 .00001218 00000-0 48569-4 0 9992
L22 41557 97.4310 41.5869 0012539 349.0882 11.0083 15.27089841137004

Live tracking and technical data element details for NUSAT 1 (LO-87) (NORAD 41557). NUSAT 1 (LO-87) can be tracked NOW for your location showing map with azimuth and elevation plus other details from your city location.

Track the satellite on the map from your city or location and see movement details for azimuth, elevation, latitude, longitude, range, height, and movement on the map or in text.







IsCatalogInMostPopularTable: catalog: 41557, numindb: 138
Update: records affected: 1



GetName: 41557 NUSAT 1 (LO-87)

Hit Count: updated at: Wed, 14 Nov 2018 15:53:42 GMT